[[{"header":{"parameterUnit":"m.s-1","parameterCategory":1,"la1":30.2991,"la2":30.254,"lo1":-89.0895,"lo2":-89.0444,"dy":0.0017,"dx":0.0017,"nx":28,"ny":28,"refTime":"2025-06-04T03:00:00:Z","depth":0,"parameterNumber":2,"parameterNumberName":"U-component_of_WINDS"},"data":[0,0,0,0,0,0,0,0,0,0,0,0,0,0,0,0,0,0,0,0,0,0,0,0,0,0,0,0,0,0,0,0,0,0,0,0,0,0,0,0,0,0,0,0,0,0,0,0,0,0,0,0,0,0,0,0,0,0,0.4099,0.41,0,0.4207,0.4209,0.421,0.4249,0.4248,0.4248,0.4247,0.4364,0.4368,0.4371,0,0,0,0,0,0,0,0,0,0,0,0,0,0.3932,0.3935,0.4099,0.41,0.4102,0.4207,0.4209,0.421,0.4249,0.4248,0.4248,0.4247,0.4363,0.4367,0.4371,0,0,0,0,0,0,0,0,0,0,0,0,0,0.4019,0.3936,0.4099,0.4134,0.4138,0.4207,0.4209,0.4211,0.4249,0.4248,0.4248,0.4247,0.4362,0.4367,0.4372,0.4416,0,0,0.4388,0.439,0,0,0,0,0,0,0,0,0.4014,0.4025,0.4127,0.4131,0.4136,0.4214,0.4193,0.428,0.4249,0.4207,0.4247,0.4247,0.4315,0.4324,0.4346,0.4422,0.4427,0.4388,0.4392,0.4394,0.4395,0,0,0,0,0,0,0,0.4008,0.4021,0.4142,0.4129,0.4134,0.4146,0.4157,0.4209,0.4263,0.421,0.4213,0.4225,0.4317,0.4341,0.4349,0.4428,0.4388,0.4393,0.4396,0.4398,0.4547,0.4548,0,0,0,0,0,0,0.3995,0.4015,0.4139,0.4145,0.4072,0.4149,0.4162,0.419,0.4263,0.4273,0.4226,0.4227,0.4332,0.4343,0.4353,0.441,0.4394,0.4399,0.4402,0.4546,0.4547,0.4548,0,0,0,0,0,0,0.3992,0.4006,0.4134,0.4081,0.4098,0.4153,0.4183,0.4192,0.4215,0.4274,0.4285,0.4239,0.4332,0.4346,0.44,0.4415,0.4401,0.4406,0.4545,0.4546,0.4548,0.4524,0,0,0,0,0,0,0.3987,0.4004,0.402,0.4081,0.4101,0.4177,0.4184,0.4195,0.4223,0.4226,0.429,0.43,0.4333,0.4392,0.4405,0.4422,0.441,0.4544,0.4546,0.4547,0.4523,0.4524,0.4524,0,0,0,0,0,0.398,0.401,0.4021,0.4035,0.4122,0.4178,0.419,0.4225,0.4224,0.4242,0.428,0.4298,0.4411,0.4397,0.4412,0.4431,0.4543,0.4545,0.4547,0.4523,0.4524,0.4524,0,0,0,0,0,0,0.3951,0.4019,0.4031,0.4081,0.4123,0.4184,0.4207,0.4225,0.4269,0.427,0.4314,0.4328,0.4379,0.4411,0.4394,0.4478,0.4478,0.4483,0.4455,0.4456,0.4457,0.4448,0.4414,0,0,0,0,0,0.395,0.3989,0.4046,0.4085,0.4105,0.4153,0.4179,0.4202,0.4248,0.4267,0.4309,0.4355,0.4401,0.443,0.4476,0.4528,0.4543,0.4548,0.4549,0.4549,0.4553,0.4584,0.4587,0.4554,0.4554,0.4554,0,0,0.395,0.3991,0.4013,0.408,0.4116,0.4156,0.4167,0.421,0.4241,0.4274,0.4327,0.436,0.4414,0.4467,0.4493,0.4495,0.4565,0.4551,0.4551,0.4555,0.4586,0.4589,0.4591,0.4555,0.4555,0.4555,0,0,0.3969,0.4003,0.404,0.4075,0.4127,0.4159,0.4167,0.4226,0.4248,0.4302,0.4328,0.4366,0.4444,0.4482,0.4511,0.4545,0.4563,0.4559,0.4561,0.4591,0.4593,0.4596,0.4608,0.4612,0.4562,0.4562,0.4562,0,0.3961,0.4021,0.4057,0.4097,0.4127,0.4157,0.4195,0.4228,0.4294,0.4314,0.4315,0.4414,0.4452,0.4515,0.4523,0.4546,0.4558,0.4552,0.459,0.4593,0.4596,0.4608,0.4612,0.4561,0.4562,0.4562,0.4562,0,0.401,0.4051,0.4075,0.4135,0.4167,0.4206,0.4249,0.4278,0.4299,0.4331,0.4386,0.4433,0.4489,0.4506,0.4528,0.4572,0.4572,0.4581,0.4582,0.4597,0.4609,0.4614,0.456,0.456,0.4561,0.4561,0,0,0.4013,0.4093,0.4101,0.4129,0.4189,0.4223,0.4264,0.4317,0.4341,0.4386,0.4422,0.4488,0.4496,0.453,0.4556,0.4582,0.4606,0.4588,0.459,0.459,0.4659,0.4651,0.4656,0.4618,0.4619,0.462,0.4654,0,0.404,0.4113,0.4146,0.4205,0.4244,0.4274,0.431,0.4352,0.4383,0.4423,0.4458,0.4504,0.4511,0.4531,0.4558,0.4597,0.462,0.4595,0.4654,0.4656,0.4639,0.4663,0.4655,0.4685,0.4659,0.466,0.4661,0,0.4081,0.4124,0.4186,0.4242,0.426,0.4291,0.4343,0.4379,0.4429,0.445,0.4486,0.4512,0.4558,0.4556,0.4622,0.4604,0.463,0.4653,0.4655,0.4662,0.4659,0.4671,0.4695,0.47,0.4669,0.4668,0.4667,0,0.4078,0.4151,0.4197,0.4221,0.4287,0.4309,0.4338,0.4387,0.4416,0.4462,0.4482,0.4533,0.4561,0.4601,0.464,0.4635,0.4702,0.4703,0.4722,0.4721,0.4735,0.4733,0.4764,0.4751,0.4751,0.4751,0.4751,0,0.4104,0.4141,0.4196,0.4225,0.4268,0.4307,0.4349,0.4381,0.4423,0.446,0.449,0.4524,0.4574,0.4615,0.4646,0.4696,0.4709,0.4728,0.4736,0.4725,0.4723,0.4743,0.4742,0.4753,0.4752,0.4752,0.4752,0,0.4107,0.4146,0.4198,0.4257,0.4273,0.4302,0.4353,0.4383,0.4415,0.4461,0.4475,0.4526,0.4576,0.4619,0.4685,0.4706,0.4758,0.4767,0.474,0.4745,0.4761,0.4759,0.4806,0.4814,0.4796,0.4796,0.4796,0,0.4121,0.415,0.4211,0.4237,0.4265,0.4307,0.4337,0.4377,0.4407,0.4466,0.4489,0.4541,0.4584,0.4663,0.4707,0.4759,0.477,0.4783,0.4778,0.4766,0.477,0.4768,0.4772,0.4783,0.4783,0.4783,0.4783,0,0.4143,0.416,0.4201,0.4249,0.4284,0.4324,0.4365,0.4385,0.4434,0.4467,0.4517,0.455,0.4617,0.4669,0.4725,0.4757,0.4779,0.4784,0.4791,0.4781,0.4764,0.4773,0.4741,0.4783,0.4783,0.4783,0.4783,0.4783,0.4152,0.4179,0.4226,0.4271,0.4306,0.4344,0.4375,0.4411,0.4453,0.4509,0.4531,0.4583,0.4633,0.471,0.4742,0.4784,0.4788,0.4798,0.4801,0.4802,0.4801,0.4757,0.4795,0.4795,0.4795,0.4795,0.4795,0,0.4175,0.4207,0.4248,0.4304,0.4339,0.4355,0.4401,0.4431,0.4475,0.4519,0.456,0.4619,0.4669,0.4717,0.477,0.4795,0.4806,0.4808,0.4806,0.4814,0.4795,0.4783,0.4798,0.4798,0.4798,0.4798,0.4798,0.4798,0.4191,0.4238,0.4261,0.4326,0.4358,0.4407,0.4433,0.4469,0.4504,0.4567,0.4608,0.4638,0.4685,0.4741,0.4788,0.4801,0.482,0.4819,0.4834,0.4816,0.4815,0.4814,0.4804,0.4822,0.4822,0.485,0.485,0.485]},{"header":{"parameterUnit":"m.s-1","parameterCategory":1,"la1":30.2991,"la2":30.254,"lo1":-89.0895,"lo2":-89.0444,"dy":0.0017,"dx":0.0017,"nx":28,"ny":28,"refTime":"2025-06-04T03:00:00:Z","depth":0,"parameterNumber":3,"parameterNumberName":"V-component_of_WINDS"},"data":[0,0,0,0,0,0,0,0,0,0,0,0,0,0,0,0,0,0,0,0,0,0,0,0,0,0,0,0,0,0,0,0,0,0,0,0,0,0,0,0,0,0,0,0,0,0,0,0,0,0,0,0,0,0,0,0,0,0,2.4059,2.4058,0,2.3963,2.3962,2.3961,2.3928,2.3928,2.3929,2.3929,2.3826,2.3823,2.382,0,0,0,0,0,0,0,0,0,0,0,0,0,2.4211,2.4208,2.406,2.4058,2.4057,2.3963,2.3962,2.3961,2.3928,2.3928,2.3929,2.3929,2.3827,2.3824,2.382,0,0,0,0,0,0,0,0,0,0,0,0,0,2.4133,2.4207,2.406,2.403,2.4026,2.3964,2.3962,2.396,2.3928,2.3928,2.3929,2.3929,2.3829,2.3824,2.382,2.3779,0,0,2.3805,2.3803,0,0,0,0,0,0,0,0,2.4137,2.4127,2.4035,2.4032,2.4027,2.3958,2.3978,2.3899,2.3928,2.3965,2.3929,2.393,2.387,2.3862,2.3842,2.3774,2.377,2.3805,2.3802,2.38,2.3799,0,0,0,0,0,0,0,2.4143,2.4131,2.4021,2.4034,2.4029,2.4019,2.4009,2.3963,2.3915,2.3962,2.3959,2.3948,2.3867,2.3847,2.3839,2.3768,2.3805,2.3801,2.3798,2.3796,2.366,2.366,0,0,0,0,0,0,2.4154,2.4136,2.4024,2.4018,2.4085,2.4016,2.4004,2.398,2.3915,2.3906,2.3948,2.3947,2.3854,2.3845,2.3836,2.3783,2.38,2.3796,2.3793,2.3661,2.366,2.3659,0,0,0,0,0,0,2.4157,2.4144,2.4028,2.4076,2.4061,2.4013,2.3985,2.3978,2.3957,2.3905,2.3896,2.3936,2.3854,2.3842,2.3793,2.3779,2.3794,2.3789,2.3662,2.3661,2.366,2.3677,0,0,0,0,0,0,2.4161,2.4145,2.4131,2.4076,2.4058,2.3989,2.3985,2.3975,2.3949,2.3947,2.3891,2.3882,2.3854,2.38,2.3789,2.3772,2.3786,2.3663,2.3662,2.366,2.3678,2.3677,2.3676,0,0,0,0,0,2.4167,2.4139,2.413,2.4117,2.4039,2.3988,2.3978,2.3947,2.3948,2.3932,2.3899,2.3884,2.3783,2.3796,2.3782,2.3764,2.3664,2.3662,2.366,2.3678,2.3677,2.3676,0,0,0,0,0,0,2.4191,2.4131,2.4121,2.4074,2.4037,2.3983,2.3961,2.3947,2.3907,2.3906,2.3868,2.3856,2.3809,2.3782,2.3798,2.3721,2.3722,2.3718,2.374,2.3739,2.3738,2.3745,2.3782,0,0,0,0,0,2.4192,2.4156,2.4105,2.4069,2.4051,2.401,2.3986,2.3966,2.3924,2.3908,2.3871,2.383,2.3789,2.3763,2.3722,2.3674,2.366,2.3655,2.3654,2.3654,2.365,2.3621,2.3617,2.3653,2.3653,2.3653,0,0,2.4191,2.4154,2.4134,2.4073,2.4041,2.4004,2.3996,2.3958,2.3929,2.3901,2.3853,2.3825,2.3777,2.3728,2.3704,2.3703,2.3637,2.3651,2.3651,2.3647,2.3618,2.3615,2.3612,2.3652,2.3652,2.3653,0,0,2.4171,2.414,2.4106,2.4075,2.4027,2.4,2.3992,2.394,2.392,2.3871,2.3849,2.3815,2.3745,2.3711,2.3685,2.3652,2.3636,2.364,2.3634,2.3607,2.3604,2.3601,2.3588,2.3584,2.3636,2.3636,2.3636,0,2.4176,2.4121,2.409,2.4052,2.4026,2.4,2.3964,2.3935,2.3876,2.3858,2.3858,2.377,2.3736,2.3678,2.367,2.365,2.3638,2.3645,2.3607,2.3604,2.3601,2.3588,2.3583,2.3637,2.3637,2.3637,2.3637,0,2.4128,2.409,2.4068,2.4013,2.3984,2.3947,2.391,2.3884,2.3866,2.3838,2.3787,2.3746,2.3696,2.3681,2.3663,2.362,2.3621,2.3615,2.3615,2.3599,2.3585,2.358,2.3638,2.3638,2.3637,2.3637,0,0,2.412,2.4049,2.4041,2.4015,2.3961,2.393,2.3892,2.3844,2.3822,2.3782,2.3748,2.3689,2.3683,2.3653,2.3631,2.3607,2.3582,2.3603,2.3602,2.3599,2.353,2.3534,2.3529,2.3572,2.3571,2.357,2.3534,0,2.4092,2.4024,2.3995,2.3939,2.3902,2.3878,2.3844,2.3806,2.3779,2.3743,2.3713,2.3671,2.3667,2.3649,2.3624,2.359,2.3567,2.3592,2.3537,2.3536,2.3549,2.3522,2.3526,2.3494,2.3528,2.3527,2.3527,0,2.4049,2.4011,2.3952,2.3901,2.3884,2.3855,2.3808,2.3775,2.3731,2.3713,2.368,2.3659,2.3616,2.362,2.356,2.3578,2.3554,2.3533,2.3531,2.3524,2.3529,2.3512,2.3483,2.3478,2.3519,2.3519,2.352,0,2.4047,2.398,2.3936,2.3915,2.3855,2.3835,2.3809,2.3766,2.3738,2.3697,2.3679,2.3633,2.3607,2.3572,2.3538,2.3545,2.348,2.3482,2.3462,2.3463,2.3448,2.345,2.3414,2.3436,2.3436,2.3436,2.3436,0,2.4018,2.3982,2.3934,2.3907,2.3866,2.3832,2.3792,2.3764,2.3726,2.3691,2.3667,2.3635,2.3594,2.3556,2.3529,2.3482,2.3471,2.3454,2.3447,2.3455,2.3457,2.3438,2.3438,2.3435,2.3435,2.3435,2.3436,0,2.4008,2.3975,2.3924,2.3872,2.3858,2.383,2.3785,2.3756,2.3728,2.3685,2.3673,2.3628,2.3582,2.3546,2.3486,2.3468,2.3418,2.3411,2.3433,2.3429,2.341,2.3412,2.3359,2.335,2.338,2.338,2.338,0,2.3991,2.3963,2.3908,2.3884,2.3858,2.3819,2.3792,2.3758,2.3729,2.3677,2.3655,2.3607,2.3568,2.3495,2.3456,2.341,2.3401,2.3386,2.3393,2.3402,2.3398,2.34,2.3396,2.3384,2.3384,2.3384,2.3384,0,2.3963,2.3948,2.3909,2.3865,2.3833,2.3796,2.3758,2.3739,2.3698,2.3668,2.3621,2.359,2.3529,2.3482,2.3431,2.3403,2.3385,2.3382,2.3374,2.3381,2.3395,2.3385,2.3429,2.3383,2.3383,2.3383,2.3383,2.3383,2.3947,2.3921,2.3878,2.3836,2.3804,2.377,2.374,2.3709,2.367,2.3618,2.36,2.3552,2.3507,2.3438,2.3409,2.337,2.3368,2.3358,2.3355,2.3353,2.3353,2.3403,2.336,2.336,2.336,2.336,2.336,0,2.3917,2.3888,2.385,2.3798,2.3765,2.3753,2.3711,2.3683,2.3641,2.3602,2.3563,2.3509,2.3463,2.3421,2.3372,2.3349,2.334,2.3337,2.3337,2.3331,2.3357,2.3368,2.3345,2.3345,2.3345,2.3345,2.3345,2.3345,2.3897,2.3851,2.3831,2.3769,2.374,2.3693,2.3669,2.3637,2.3605,2.3546,2.3508,2.3481,2.344,2.3389,2.3345,2.3334,2.3316,2.3315,2.3302,2.3327,2.3329,2.3331,2.334,2.3312,2.3312,2.3278,2.3278,2.3278]}]]